STARLINK T

Last updated on Jan. 16, 2020, 12:02 a.m. UTC

1 44931U 20001T   20015.58334491  .00171499  00000-0  84764-3 0  9992
2 44931  53.0005 354.8412 0001170 120.1959 266.0140 15.81064099  2081

Satellite is not in orbit.